Wind_Speed
37 36 38 41 43 42 40 37 32 27 23 22 25 26 27 28 27 27 26 25 25 34 39 34 30 32 34 33 29 25 21 17 19 25 28 24 21 21 20 19 18 16 13 14 15 15 13 14 16 15 14 13 12 10 10 10 9 9 10 11 11 9 9 8 7 7 7 7 6 6 6 7 6 7 7 7 8 8 7 5 4 4 4 4 2 1
37 39 42 40 38 38 38 34 28 28 27 22 24 28 28 29 30 27 25 25 25 32 39 34 30 31 32 33 30 26 24 20 18 22 22 19 18 20 20 18 16 16 15 16 18 18 17 17 18 18 16 15 13 12 12 12 10 9 11 12 10 8 8 9 9 8 8 6 6 7 7 6 7 8 9 9 8 7 7 7 5 4 4 4 2 2
40 42 40 35 33 33 33 33 29 30 31 25 25 29 28 30 31 28 27 28 28 31 37 35 31 29 29 30 31 27 26 23 20 19 17 15 16 18 18 16 15 16 16 19 19 18 19 18 18 18 18 17 16 15 14 13 12 11 12 12 9 8 9 9 8 8 8 7 7 8 8 7 7 9 10 10 9 8 7 7 5 5 6 5 2 3
40 41 38 31 30 30 30 34 33 32 33 30 30 29 27 26 29 30 30 28 28 32 36 35 31 26 24 26 27 25 24 23 21 19 16 12 11 13 14 15 15 16 18 20 20 18 19 18 17 18 18 18 17 16 15 14 14 13 12 10 7 8 9 8 8 9 8 7 8 9 10 9 9 10 11 10 10 9 8 8 7 8 7 5 3 4
34 35 36 31 29 32 31 32 36 35 33 34 34 31 28 25 24 27 28 25 25 30 33 34 26 18 23 25 24 25 23 23 22 19 17 13 12 13 15 18 18 18 19 20 21 21 20 19 19 19 18 16 16 14 14 15 15 14 14 11 8 8 7 8 10 10 9 8 10 11 11 11 11 12 12 11 11 10 8 8 8 7 5 3 4 5
28 29 33 34 31 34 33 32 38 38 33 35 36 34 30 25 22 23 24 24 24 29 30 32 20 11 22 25 23 28 25 23 23 19 17 14 15 19 20 20 20 19 20 20 20 21 20 20 20 19 18 15 14 13 13 14 14 14 14 12 11 10 8 9 12 11 10 11 11 12 12 13 13 13 13 13 12 10 8 7 6 4 2 2 4 6
26 26 31 35 33 34 34 33 37 39 33 35 38 35 30 28 25 23 25 27 25 27 28 30 19 10 20 24 21 25 25 25 24 19 19 17 17 22 21 20 22 22 22 21 20 21 20 20 20 19 17 15 13 12 14 14 13 12 12 12 11 10 10 11 12 11 10 11 11 12 13 14 13 13 13 13 12 9 6 5 4 3 2 3 4 6
28 27 30 35 35 34 38 37 36 38 36 36 39 35 30 31 29 25 27 28 23 27 30 31 25 17 21 25 22 24 26 26 26 22 21 20 20 23 23 23 24 23 22 22 22 23 21 20 20 19 16 14 13 13 14 14 12 11 12 11 10 10 11 12 12 12 12 11 11 13 14 14 13 12 12 11 9 7 6 5 4 3 2 3 4 5
28 30 31 34 37 37 39 39 34 35 37 37 36 35 31 30 28 27 25 21 16 24 27 32 29 13 17 29 26 25 29 27 26 25 23 22 24 24 25 25 24 23 22 23 25 25 24 23 22 20 17 16 15 15 15 14 13 12 12 12 11 11 12 12 13 14 14 13 13 15 15 14 13 13 12 10 9 7 6 5 4 3 3 4 5 5
27 30 29 32 38 38 37 36 33 33 36 34 31 32 30 26 26 26 23 18 13 19 23 32 33 11 11 30 32 27 31 29 26 26 24 24 26 26 26 26 25 23 23 24 25 26 25 24 23 21 19 17 16 16 15 15 15 14 13 12 12 12 12 12 14 16 17 17 17 17 17 16 15 14 12 10 9 7 6 5 4 3 4 4 5 5
26 27 27 31 36 36 32 32 33 31 31 31 29 27 27 27 26 24 23 20 12 11 17 30 36 19 8 25 39 32 26 27 29 28 26 26 28 27 27 27 25 23 23 25 26 27 26 23 22 21 19 17 16 16 15 15 15 14 14 13 13 13 13 14 16 18 20 20 20 19 18 17 16 14 11 9 7 6 6 5 4 4 4 4 5 6
27 26 30 32 33 33 30 30 33 30 28 29 30 27 24 24 23 20 22 20 7 3 11 22 32 25 12 23 37 31 23 27 31 29 28 30 30 28 28 29 26 23 24 25 26 27 25 23 24 23 21 19 18 16 15 15 16 15 14 13 13 13 13 16 18 19 20 21 21 19 18 17 15 12 9 8 7 6 5 4 4 4 4 5 6 6
30 30 30 29 30 33 31 30 33 33 32 30 32 31 20 10 12 12 11 9 4 3 12 22 30 21 15 26 33 27 25 30 31 29 28 31 31 29 31 31 28 25 25 25 25 24 22 23 25 24 22 20 18 16 15 16 16 15 14 14 13 13 13 17 18 19 21 21 20 19 18 15 12 9 8 7 7 6 5 5 4 4 5 6 6 6
26 28 30 29 31 34 33 33 36 37 36 36 37 33 18 6 5 6 3 2 2 4 12 25 27 14 12 22 27 26 28 27 27 28 27 29 30 29 31 30 28 26 25 25 25 23 21 22 23 23 22 20 18 17 16 15 15 16 15 14 14 14 14 18 21 21 22 22 21 19 16 12 10 9 8 7 6 6 5 5 4 5 6 6 6 6
18 21 30 33 32 35 36 34 34 34 32 37 40 32 18 8 6 5 2 3 3 3 9 16 13 9 12 16 21 25 26 24 27 30 28 28 30 30 30 29 27 27 26 26 25 22 21 20 22 22 21 21 19 17 15 14 15 16 15 15 15 15 15 19 23 23 22 22 20 16 13 11 10 9 8 7 6 6 5 5 5 6 6 6 6 7
19 19 29 31 26 32 37 31 30 30 28 34 38 32 23 14 9 8 2 3 4 1 4 8 4 5 8 11 16 22 25 27 31 33 32 31 32 32 31 29 27 28 27 28 26 23 21 20 21 22 22 21 19 17 15 14 14 16 16 16 17 17 18 20 22 21 21 19 17 14 13 12 10 9 8 7 7 7 7 7 7 7 6 6 7 7
17 18 30 29 21 30 35 29 30 29 25 31 34 32 29 17 11 12 5 3 5 2 3 9 5 3 4 9 22 28 28 29 33 36 33 32 33 32 31 30 29 29 28 28 26 23 22 22 23 23 22 21 20 19 16 14 15 16 16 17 18 19 20 20 21 20 19 18 17 15 14 12 10 9 9 8 8 7 8 7 7 7 7 8 8 8
14 16 32 31 21 28 32 28 32 29 23 29 33 32 29 17 12 14 8 3 4 2 5 12 11 7 10 15 25 33 35 33 35 37 31 29 31 30 30 31 30 30 28 26 25 24 24 24 24 24 23 22 22 20 17 15 16 17 17 18 19 20 20 21 21 21 21 20 18 17 14 12 11 11 10 10 9 9 8 8 8 8 9 9 9 9
16 13 25 29 23 27 29 27 30 30 25 26 31 31 25 15 15 15 7 5 6 2 2 11 17 12 14 23 28 34 39 37 36 36 30 26 27 27 29 30 29 28 28 26 25 25 26 26 25 25 24 23 23 21 18 17 17 18 19 20 20 20 20 20 21 21 21 20 18 16 14 14 13 12 12 11 11 10 9 9 9 10 10 10 10 10
20 13 17 25 27 27 29 27 28 30 27 23 25 30 26 17 17 16 5 6 11 4 0 6 10 9 16 27 33 36 37 37 37 35 30 26 25 26 28 28 27 27 27 25 24 26 27 26 26 25 25 24 24 21 19 18 18 19 21 21 21 21 20 20 20 20 19 18 17 16 16 16 15 14 14 13 13 12 11 11 11 11 12 12 12 12
19 19 18 24 27 27 32 34 32 29 27 27 28 28 28 21 17 15 8 8 12 7 3 4 3 6 15 21 31 37 34 34 36 34 31 28 27 27 27 26 25 26 25 23 23 25 26 26 26 26 25 26 25 22 20 19 18 20 21 21 21 20 20 20 19 19 18 17 17 18 18 17 16 16 15 15 15 14 13 13 13 13 14 14 14 13
17 23 22 26 29 31 33 34 34 27 23 31 31 24 28 29 17 8 6 12 15 8 6 8 4 3 9 18 29 35 33 33 33 33 35 33 28 28 28 26 25 24 23 23 24 25 26 26 26 26 26 26 25 23 22 19 19 20 21 21 20 19 19 19 19 18 18 18 18 18 17 17 17 17 16 16 16 17 16 15 15 15 15 15 15 15
16 23 25 26 26 28 28 28 34 26 18 30 33 21 25 34 26 12 5 10 17 12 8 13 9 1 4 18 29 32 32 31 31 33 37 34 28 27 28 27 26 25 23 23 25 26 26 26 26 26 27 27 26 24 22 20 19 20 21 21 19 19 18 18 18 18 18 18 17 17 17 17 17 17 17 17 17 18 17 17 17 17 16 16 16 15
13 22 27 22 18 22 23 25 31 24 15 26 33 26 22 29 32 23 11 10 14 14 10 10 6 3 7 20 30 30 30 30 30 34 34 30 28 26 27 27 27 27 26 25 26 26 26 26 26 26 27 28 27 25 23 21 20 21 22 21 19 18 17 17 17 17 17 17 16 16 15 16 16 16 16 17 18 18 19 18 18 18 17 17 16 16
11 21 27 17 9 15 18 16 24 28 22 21 28 31 25 24 30 28 21 15 10 12 14 9 4 6 11 18 27 28 29 30 30 31 30 28 28 27 28 28 27 27 27 27 27 27 26 26 26 27 27 27 27 26 24 22 22 23 23 22 20 18 17 17 16 15 15 14 14 14 14 14 15 15 16 17 18 19 20 19 19 19 18 17 16 15
15 21 27 19 7 8 10 10 18 27 26 18 20 28 27 22 27 29 28 21 9 9 15 8 8 15 15 16 23 24 25 27 26 26 26 27 28 29 29 29 28 28 27 26 26 27 27 27 26 27 27 27 27 26 24 24 25 24 22 21 20 19 18 16 14 14 14 13 13 13 13 13 13 14 15 16 18 20 20 20 19 18 17 16 15 14
17 20 25 25 16 12 14 19 23 26 26 20 15 20 23 22 22 23 27 23 11 9 10 5 11 20 19 19 23 24 25 25 21 21 24 26 28 29 29 30 30 28 25 25 26 27 28 27 27 27 27 27 27 26 26 26 25 23 22 22 21 19 18 16 14 13 13 13 13 12 11 11 11 13 14 16 17 19 19 18 17 17 16 15 14 13
15 20 23 26 21 13 14 22 26 27 28 23 16 17 23 25 20 19 23 24 17 11 6 5 10 16 19 21 22 21 24 24 19 20 24 26 27 28 30 32 32 29 26 26 26 28 28 28 27 27 27 27 27 27 28 28 25 23 23 23 22 19 17 15 14 13 13 12 12 11 10 10 11 12 13 14 16 17 17 16 16 15 15 13 12 11
11 21 23 23 20 15 16 21 24 26 28 25 19 21 28 30 25 21 20 19 14 10 7 9 11 14 19 21 20 18 21 23 20 20 22 24 25 27 29 33 33 30 28 26 27 28 28 28 28 27 26 26 27 28 30 29 27 24 23 23 21 20 18 16 15 14 12 12 10 9 9 10 11 11 12 13 14 14 15 14 14 14 13 12 11 10
14 21 21 19 19 18 18 21 24 26 27 25 20 21 28 30 28 25 23 18 11 7 9 11 12 16 20 22 21 18 19 22 21 19 21 23 25 27 29 32 32 29 26 25 25 27 28 28 28 27 27 28 28 30 32 31 27 24 22 22 22 21 20 18 16 14 13 12 10 9 9 10 11 12 13 13 13 13 13 13 13 12 11 10 9 8
16 16 15 14 15 17 17 19 24 26 25 24 20 20 24 24 24 24 25 23 16 9 13 14 13 19 21 20 20 19 19 23 23 20 20 22 24 27 29 31 30 27 25 23 24 26 27 27 27 26 27 30 30 30 30 28 26 23 22 22 23 23 22 21 19 16 13 12 11 10 11 11 12 13 13 12 11 11 11 11 11 11 10 9 8 7
14 12 13 11 7 10 13 13 15 21 25 24 23 24 24 19 18 21 23 24 18 11 14 18 18 20 19 17 17 19 20 23 24 23 22 23 25 26 28 29 28 26 25 23 25 27 25 23 24 27 29 31 30 27 27 27 26 25 24 24 24 23 22 21 20 17 15 14 12 12 12 13 13 13 12 12 11 11 11 11 11 10 10 9 8 7
12 12 13 8 4 7 11 8 6 15 21 19 19 21 24 21 16 18 22 23 20 15 12 15 17 16 16 16 16 18 21 22 23 25 25 25 25 26 26 26 26 25 24 23 24 24 23 23 25 28 31 32 28 25 27 29 28 27 26 25 23 21 20 21 21 19 17 15 14 13 14 14 14 14 13 11 10 10 10 10 10 10 10 9 8 7
12 12 9 4 4 5 10 5 1 6 10 9 10 11 16 20 17 17 21 20 18 19 15 9 9 12 16 18 17 15 17 19 22 22 21 20 21 23 23 23 24 24 23 22 21 21 24 27 27 26 26 26 25 25 28 29 29 29 28 27 24 22 21 21 21 20 18 16 15 15 15 15 14 13 12 10 9 9 10 10 10 10 10 9 9 8
11 10 6 2 4 5 7 4 1 0 3 6 8 7 11 17 16 18 23 19 16 19 18 13 7 7 13 16 14 13 13 15 18 19 18 18 18 18 19 20 21 23 22 21 20 20 22 24 22 20 20 22 23 25 27 28 28 29 30 29 26 23 22 22 20 19 17 16 15 15 15 14 13 11 9 8 8 9 10 10 10 10 9 9 9 8
11 8 3 2 4 4 4 5 3 0 3 7 10 9 11 13 12 15 22 22 18 18 18 17 11 6 13 16 13 14 15 15 18 19 19 19 18 18 17 14 14 15 16 15 16 18 19 18 16 13 17 23 26 25 26 27 27 27 29 31 28 24 23 22 21 18 16 15 15 15 13 12 11 9 8 8 8 9 10 10 10 10 9 9 8 7
14 8 2 3 8 4 1 6 6 2 4 9 14 14 13 11 8 9 14 19 23 20 17 20 19 13 17 18 13 13 15 16 18 21 21 20 20 19 17 12 10 10 11 11 11 12 14 15 14 13 16 21 23 23 25 26 25 25 28 29 26 23 23 23 20 17 15 15 14 13 11 10 9 8 8 8 9 9 10 10 10 10 9 8 8 7
18 10 3 4 11 8 2 3 4 1 3 8 14 16 17 15 11 10 9 14 23 22 16 21 26 23 20 20 16 15 16 17 18 19 20 22 22 22 20 16 13 11 10 11 12 14 15 16 16 18 19 20 22 23 25 24 23 24 25 25 24 26 27 24 18 15 14 13 12 11 11 10 9 9 9 9 9 10 10 10 10 9 9 9 8 8
16 9 6 6 9 11 7 3 2 4 6 9 11 12 14 17 17 15 12 12 20 23 18 19 27 29 26 22 20 19 19 20 20 19 20 22 24 24 21 17 15 12 10 11 12 15 19 19 19 21 22 22 23 24 24 23 22 22 23 23 24 27 25 20 14 12 12 11 11 12 11 10 9 9 10 10 10 11 11 10 10 9 9 9 8 8
15 11 11 10 8 9 9 6 3 5 7 7 9 9 9 13 15 13 9 11 19 23 19 17 20 25 30 29 26 24 23 22 20 18 21 24 24 22 19 15 12 10 11 13 13 15 20 23 22 22 24 24 24 24 23 22 22 22 21 20 20 21 18 14 11 12 12 13 13 13 12 11 10 10 11 11 12 12 11 10 10 10 10 9 8 7
17 15 13 12 9 8 8 7 4 4 5 6 8 9 8 11 13 12 10 14 20 23 21 17 13 14 24 30 30 28 25 22 19 17 20 24 23 19 17 14 11 10 11 14 15 15 18 22 22 21 22 24 24 24 23 22 22 21 20 19 17 16 14 12 13 14 15 15 15 13 12 11 11 11 12 12 13 12 11 11 11 11 10 9 8 7
13 11 12 13 11 7 8 9 5 3 7 9 9 10 11 10 10 11 11 14 20 23 23 21 18 14 18 25 27 26 25 24 21 19 19 20 19 17 15 14 13 12 12 14 15 16 17 19 21 22 23 24 24 23 22 21 21 20 19 18 16 14 14 14 14 16 16 16 14 13 11 11 11 12 13 13 13 12 11 12 12 12 11 9 8 7
11 7 9 15 14 8 7 9 6 3 7 10 10 12 13 10 9 11 12 14 19 25 25 24 24 22 21 21 19 18 23 26 24 22 21 20 19 17 15 14 14 13 11 11 13 15 17 19 23 27 28 26 23 22 21 21 21 20 18 16 15 15 16 15 16 16 16 15 14 13 12 13 13 13 13 13 12 12 12 13 13 13 11 9 8 6
12 9 8 11 14 11 7 6 6 5 9 11 10 11 12 12 12 14 13 13 16 22 24 25 28 30 29 25 19 17 23 26 24 22 22 21 21 20 18 16 14 11 9 10 12 15 17 20 24 28 28 25 22 21 22 22 20 19 17 16 16 17 17 16 17 16 15 14 14 14 14 15 14 14 13 13 12 13 14 14 14 13 11 9 8 6
12 12 10 8 11 13 8 4 5 9 12 13 10 10 11 13 14 14 13 12 12 14 17 20 26 32 32 27 21 19 22 23 22 20 20 20 21 21 20 18 15 11 10 11 12 15 18 21 23 26 25 23 21 22 22 21 20 18 18 17 16 17 17 17 17 16 15 15 16 16 16 15 15 14 14 14 14 15 15 15 14 12 10 9 7 5
8 11 11 7 7 9 5 2 4 9 13 12 10 10 10 11 12 13 12 12 11 11 13 16 22 30 32 27 22 21 22 22 22 21 20 20 21 21 21 21 20 17 15 14 13 15 19 23 25 25 23 22 22 22 22 22 21 19 18 17 16 17 17 17 16 16 17 17 17 17 16 16 16 15 15 16 17 17 17 16 13 11 10 8 6 5
8 11 15 10 7 7 4 4 7 9 11 11 10 10 10 7 8 11 12 12 11 10 10 13 17 24 29 28 25 24 23 23 24 23 23 23 23 23 23 23 23 21 20 17 15 16 19 23 26 26 24 23 23 23 24 24 22 19 18 17 17 17 17 17 18 19 19 19 18 17 17 17 17 17 18 18 19 19 18 15 12 11 9 7 6 4
10 11 15 11 8 9 8 6 5 5 8 11 11 11 10 7 6 8 9 10 10 9 8 9 13 18 23 26 26 23 20 21 23 25 26 27 26 25 24 23 21 21 21 19 17 17 19 24 27 28 26 25 25 25 25 23 20 19 19 18 17 17 18 19 20 21 20 19 18 18 18 18 18 19 20 20 20 19 16 14 12 10 9 7 6 4
7 7 12 12 7 8 9 8 7 6 7 10 11 11 10 9 7 6 6 7 7 8 9 10 10 13 18 23 26 25 22 21 24 26 27 27 26 25 24 22 21 21 21 20 18 18 20 24 27 27 27 27 27 26 24 22 20 20 20 17 16 18 20 21 22 21 20 19 19 19 19 20 20 20 20 19 18 17 15 14 12 10 8 7 6 5
7 4 9 13 11 11 12 11 11 10 8 9 12 11 9 9 8 7 6 6 5 6 9 12 13 13 15 18 22 24 24 24 25 26 26 25 25 24 23 22 23 22 21 20 20 21 24 26 26 26 27 28 28 27 26 23 22 21 19 16 16 19 21 22 22 21 20 20 19 19 20 20 20 20 20 19 18 17 15 14 12 10 8 7 6 5
7 4 8 12 12 12 13 12 11 11 10 10 12 10 8 9 9 8 7 5 4 5 8 12 14 15 16 16 16 17 18 20 22 23 24 24 25 24 24 24 24 23 21 21 22 24 26 27 27 28 28 29 29 30 28 25 22 20 17 16 18 21 22 22 21 20 19 19 19 20 21 20 20 21 21 20 19 17 15 12 10 9 8 8 7 6
Wind_Direction
186 190 193 200 205 204 200 201 209 208 200 204 211 214 219 221 223 221 222 224 220 215 212 212 215 219 224 226 228 233 238 242 239 231 224 224 234 241 244 244 241 236 226 221 220 217 213 199 190 186 185 191 194 199 214 222 222 219 216 226 238 248 253 244 232 218 210 214 224 225 218 204 192 192 185 172 170 169 168 173 186 205 241 255 227 156
192 200 201 199 202 203 201 199 203 206 199 202 212 210 212 219 223 222 219 224 223 213 210 212 211 217 224 223 223 227 234 241 236 226 222 226 238 241 238 233 228 223 215 211 211 205 199 197 196 192 191 195 195 201 210 213 209 201 206 220 233 243 244 243 241 234 221 214 222 227 224 209 185 180 179 171 166 158 158 164 172 197 229 256 287 341
201 207 205 198 199 200 203 203 200 204 207 209 213 211 213 214 216 221 217 221 225 213 209 210 208 217 225 221 220 222 227 233 230 223 223 229 238 239 232 219 211 208 203 202 205 204 199 198 198 197 199 200 199 205 207 204 197 193 206 219 225 231 235 242 246 243 236 225 217 210 206 199 182 183 183 175 163 146 140 142 149 191 228 252 288 308
205 207 203 195 197 197 202 207 201 203 212 216 218 221 223 213 213 217 214 223 229 215 208 205 204 213 212 204 204 207 216 221 217 214 213 212 222 232 223 201 190 191 190 190 195 200 201 200 201 202 201 197 197 203 203 199 196 197 208 213 214 226 232 237 239 240 239 227 210 193 185 182 176 177 177 170 160 146 139 141 159 190 217 245 282 297
208 206 198 191 196 196 199 206 203 204 213 219 222 228 229 220 220 217 215 228 219 199 199 194 186 184 182 187 195 195 201 209 208 207 204 200 200 202 195 184 182 185 188 189 191 193 195 197 201 205 203 197 197 202 202 201 203 208 212 213 221 231 232 232 234 236 228 214 208 193 181 175 171 171 172 171 162 151 153 160 172 192 209 251 287 297
210 206 195 191 195 196 197 203 202 203 212 222 224 224 222 217 224 225 220 225 201 183 189 187 172 147 167 178 191 195 196 199 202 205 202 200 197 192 187 183 184 187 191 195 196 195 196 195 195 200 202 201 204 205 202 203 207 213 215 216 223 230 228 229 233 234 220 207 204 194 182 177 176 173 175 174 161 154 168 177 180 197 220 279 296 300
207 203 198 194 194 196 199 203 202 201 211 222 217 215 216 213 224 235 225 222 206 184 185 190 184 160 168 173 178 189 196 196 197 199 199 201 196 191 187 185 185 187 191 196 198 200 200 194 191 194 198 199 206 205 199 202 209 213 212 211 215 219 220 223 226 226 214 205 197 186 180 178 177 175 175 171 158 158 182 189 193 214 245 288 297 298
203 199 200 196 195 198 202 204 203 202 210 217 209 209 221 220 227 244 235 229 215 184 182 193 192 171 174 183 181 186 192 193 196 196 196 196 192 187 183 184 187 187 191 194 195 196 194 190 190 194 198 200 205 205 199 203 212 212 209 212 215 215 212 212 215 211 202 196 184 177 177 176 176 176 172 166 162 178 198 202 211 227 261 282 289 291
198 198 199 196 196 200 204 203 201 203 210 214 210 212 224 228 235 250 252 250 220 185 184 195 194 172 172 182 181 191 195 193 198 199 197 194 189 187 184 184 189 190 192 195 192 189 187 188 193 195 197 200 202 203 201 204 210 210 210 213 213 210 204 203 205 199 192 186 179 179 182 180 182 179 171 171 183 196 203 212 226 239 261 274 283 283
198 200 200 198 197 201 205 201 197 203 209 212 212 216 224 233 242 248 258 271 237 200 194 195 195 185 165 178 179 189 196 199 204 199 198 197 189 189 189 186 189 189 189 190 186 184 187 192 196 194 194 195 197 200 201 202 204 206 207 207 206 205 203 200 194 188 185 181 179 183 186 186 184 177 175 184 195 201 207 220 238 253 265 276 280 273
200 199 201 201 200 199 201 201 199 202 208 209 208 215 229 237 242 246 252 262 259 220 204 194 193 192 170 181 187 196 206 208 207 200 197 197 190 190 192 188 188 189 189 188 185 186 192 195 198 196 192 190 195 200 200 197 197 200 201 201 202 204 205 198 188 184 184 182 182 186 191 188 179 173 181 198 204 209 219 232 250 257 266 273 269 266
201 199 202 203 201 196 196 201 201 198 201 206 206 213 229 233 234 246 249 249 254 259 233 203 194 196 189 189 197 209 222 213 207 207 203 199 195 193 190 185 186 190 192 192 192 193 194 196 199 196 191 191 196 199 197 194 194 198 201 201 200 202 203 195 188 187 186 184 186 188 188 185 178 177 192 206 212 221 231 243 251 254 266 268 263 270
204 202 201 200 198 195 193 197 199 199 200 204 209 213 217 214 219 234 245 237 192 268 254 211 196 203 208 209 213 214 210 206 209 216 214 206 201 195 187 185 187 190 194 196 197 196 194 196 198 195 191 193 197 197 196 194 194 200 204 201 196 197 195 190 189 189 186 186 187 185 185 184 184 194 205 212 222 233 243 249 250 254 266 270 271 281
202 197 198 197 194 193 194 194 196 203 204 203 207 209 202 168 188 213 206 161 175 255 231 198 194 213 227 220 222 213 202 201 204 211 216 212 206 197 190 189 190 191 195 198 197 197 199 200 197 196 195 196 196 196 195 195 198 203 205 200 193 192 189 184 185 187 185 186 186 185 188 192 199 210 215 224 236 243 250 254 255 259 268 276 282 288
193 190 195 193 187 189 196 198 198 200 199 201 205 207 211 214 195 192 155 142 184 245 209 188 186 217 233 232 229 216 201 193 196 201 208 209 204 198 193 193 194 193 196 199 198 200 205 205 201 200 200 198 197 195 194 195 199 201 202 199 191 187 187 184 184 187 186 185 185 189 198 204 211 221 228 239 248 254 262 258 255 263 275 284 284 287
195 190 189 190 189 190 194 197 198 197 193 199 205 210 220 230 205 179 118 150 171 43 210 205 209 221 238 240 219 203 187 184 192 198 201 202 199 196 195 196 197 196 198 198 197 200 204 204 202 203 203 200 196 193 194 195 195 198 201 196 187 183 186 186 187 189 187 186 194 205 213 215 220 231 241 249 255 260 264 259 259 269 279 284 283 288
190 185 185 189 190 190 194 194 194 196 192 196 207 214 216 219 202 177 149 145 155 79 241 235 237 179 152 175 182 180 177 179 186 192 198 200 198 196 195 196 197 198 200 199 197 201 205 204 203 204 204 201 196 194 195 193 192 197 200 194 186 183 185 189 191 192 193 199 212 219 220 223 230 241 248 253 258 263 267 266 265 269 274 279 283 291
177 172 184 186 178 184 191 187 189 194 194 198 207 212 212 218 215 192 171 141 138 122 236 238 234 187 139 156 172 175 176 177 180 186 192 197 196 194 192 195 198 200 203 201 200 205 208 208 207 205 203 199 197 197 195 192 193 196 195 190 188 187 190 195 198 201 206 213 221 222 224 231 238 247 253 256 262 267 274 277 273 268 269 275 283 292
178 158 173 179 179 188 187 180 189 192 189 203 209 205 206 213 211 197 173 162 173 130 251 239 243 222 162 163 170 171 172 174 176 181 187 190 192 193 193 196 198 200 203 202 203 209 211 212 211 209 204 199 197 199 197 196 195 195 192 189 190 193 197 204 208 212 217 222 226 227 231 238 243 250 255 257 261 267 275 282 281 276 273 276 282 289
186 161 157 175 185 191 189 194 206 198 191 203 207 203 207 210 206 203 185 160 176 177 219 223 244 224 174 169 171 172 176 176 175 180 187 189 192 198 199 197 197 199 202 202 204 211 214 215 214 212 208 202 199 201 201 200 197 194 193 193 194 198 203 209 215 219 223 227 231 234 238 242 246 251 255 256 259 264 272 281 285 284 280 279 281 285
184 165 161 180 189 193 198 206 210 205 203 204 200 201 202 202 206 209 223 214 188 174 164 190 253 219 200 190 178 178 183 185 183 184 186 190 198 206 206 201 200 201 201 201 204 210 214 215 213 213 212 205 203 204 204 203 199 195 195 196 198 202 207 212 217 221 225 229 232 235 239 242 245 250 254 257 260 263 270 278 283 284 282 280 281 283
177 160 165 181 188 193 201 207 205 205 210 204 205 208 197 196 204 193 221 232 211 192 166 181 222 248 221 210 191 185 187 192 196 191 185 190 201 208 207 205 205 206 206 205 205 208 212 213 213 212 212 208 206 207 207 205 203 200 200 201 202 205 210 215 220 224 227 229 232 235 238 242 245 250 255 259 261 263 268 275 278 280 281 279 279 281
168 156 169 184 190 195 201 204 200 202 210 203 209 220 197 196 206 198 195 212 208 220 202 183 196 241 203 200 192 191 193 196 200 192 184 189 199 204 207 208 210 212 212 207 205 208 211 213 214 212 211 210 208 208 209 208 206 204 204 204 205 209 213 217 222 225 228 231 234 236 239 242 246 251 256 260 262 264 267 271 274 277 278 278 277 279
172 158 169 180 184 187 192 202 202 204 209 200 208 219 202 197 207 213 222 205 205 227 207 164 183 199 171 185 187 189 193 192 191 188 185 189 196 202 208 210 212 213 212 208 207 209 212 213 214 213 212 212 209 208 209 208 208 207 206 207 209 211 215 218 222 225 229 232 236 240 243 246 251 256 261 264 265 266 267 269 272 274 275 275 275 277
181 162 169 168 161 174 180 197 207 211 214 204 206 214 213 205 204 212 227 230 233 231 201 162 147 144 141 173 184 183 184 184 184 188 191 194 195 200 206 209 211 213 212 211 211 213 215 214 213 213 213 213 210 209 208 208 209 210 209 211 213 215 220 224 227 231 234 239 243 247 251 254 258 262 265 266 266 265 265 266 268 269 270 271 272 274
176 166 172 172 162 173 176 190 205 209 215 216 209 213 220 214 198 203 220 232 248 218 199 173 139 142 135 159 178 180 182 181 184 191 196 199 198 198 203 210 213 213 215 217 216 218 220 218 214 212 213 213 210 208 208 210 211 212 212 214 217 220 225 231 238 243 246 249 251 254 258 261 264 266 266 265 263 261 261 262 263 264 266 267 269 272
179 172 178 187 187 177 178 191 200 204 211 219 218 215 218 213 199 201 214 223 232 209 194 154 139 147 145 156 170 179 185 184 186 192 193 196 197 197 205 213 213 214 220 224 222 221 222 222 219 216 215 214 211 209 209 211 213 213 213 216 220 224 229 237 244 244 244 246 249 253 257 260 264 266 265 262 259 257 257 258 260 261 262 266 269 272
182 177 183 193 194 187 182 187 195 204 207 210 214 213 212 212 216 220 218 216 220 219 192 137 152 158 155 162 172 180 185 187 186 185 187 191 194 199 208 211 212 215 220 224 224 222 223 224 221 220 219 217 213 211 210 210 212 213 215 218 222 225 230 239 239 234 234 239 244 251 258 265 266 264 262 258 255 254 254 255 258 260 263 266 269 271
172 177 184 191 194 200 200 192 194 202 204 205 209 209 210 216 225 234 232 217 212 219 189 142 153 168 166 171 181 186 190 194 190 184 188 194 198 206 213 214 215 218 220 224 224 221 223 227 225 223 221 219 216 210 208 210 211 213 216 219 222 225 229 233 232 231 235 239 246 259 271 276 271 262 257 254 251 251 253 255 258 260 263 265 266 268
163 174 184 196 208 220 220 204 192 190 196 207 212 203 205 218 228 236 239 232 226 228 197 160 147 164 173 180 188 191 193 199 199 191 189 195 201 207 215 219 221 221 224 228 225 220 221 226 229 227 222 220 217 210 208 211 212 212 215 219 225 228 229 228 227 230 238 243 253 271 282 281 271 259 252 248 248 249 251 254 256 259 261 262 262 262
173 181 190 202 222 234 223 198 182 179 190 206 211 201 203 219 232 235 233 231 234 222 198 187 163 159 172 186 196 199 198 201 207 204 196 199 205 208 213 219 222 223 226 227 224 223 223 223 228 231 226 223 220 214 213 215 214 212 213 217 223 226 225 224 224 231 242 251 262 275 283 282 270 257 249 244 244 246 248 252 255 258 260 258 255 253
179 195 202 201 235 243 212 188 182 184 191 201 206 208 215 226 232 230 226 228 234 220 191 188 175 166 173 184 194 202 203 204 209 212 211 211 210 211 214 218 222 226 229 226 222 226 228 221 223 229 230 228 224 219 219 220 216 213 213 216 222 226 226 225 226 235 247 256 265 274 281 280 270 257 248 242 242 244 247 252 255 257 256 250 244 237
191 204 197 191 301 266 207 197 203 183 182 194 203 207 217 222 221 223 227 233 240 235 207 189 187 195 202 196 193 201 205 208 211 214 218 218 214 215 217 220 225 231 234 231 226 226 228 225 227 231 231 229 226 222 222 221 217 216 217 221 226 230 230 229 230 238 247 255 264 273 278 277 268 256 246 240 240 242 247 251 252 251 246 239 229 218
198 201 188 189 298 238 189 185 264 162 158 177 191 193 206 209 207 214 223 232 236 230 230 221 202 208 210 203 202 205 205 213 218 219 221 221 219 220 220 222 226 230 235 236 232 229 228 231 237 238 232 227 223 224 228 227 221 218 221 226 230 232 233 232 232 236 244 254 264 272 274 271 260 249 241 238 238 242 247 249 248 245 238 226 213 205
192 190 185 257 265 202 179 167 68 185 148 157 171 180 195 199 204 212 218 229 231 222 228 239 233 203 195 195 198 198 197 208 217 221 224 224 226 228 226 227 230 235 242 244 239 237 237 240 245 241 230 222 219 223 232 234 227 222 224 228 230 231 231 232 233 236 244 254 263 269 269 260 248 239 234 232 235 241 247 246 242 234 223 211 205 208
192 187 185 261 226 199 187 166 136 297 234 200 196 195 193 196 203 210 214 220 224 223 224 226 231 209 185 185 186 188 194 204 213 220 225 225 225 224 221 226 233 236 240 239 236 237 239 242 246 237 221 216 216 222 232 236 234 230 230 231 229 227 228 231 232 236 245 255 262 264 258 243 231 223 219 223 231 237 239 235 227 216 207 204 211 222
183 183 210 230 210 208 161 171 180 294 291 231 220 213 211 219 212 205 216 214 211 220 226 221 226 217 186 186 197 198 198 204 210 217 221 219 219 216 216 227 237 228 218 214 216 222 225 228 230 225 215 210 211 220 230 235 238 238 239 240 233 223 223 228 230 234 245 255 258 250 234 217 209 208 213 221 227 228 225 218 209 203 204 211 220 225
175 180 213 219 205 207 212 168 179 235 289 247 234 223 224 235 229 218 235 218 204 211 220 215 220 219 197 192 207 212 209 212 217 220 218 215 217 218 220 230 234 223 207 201 200 199 204 212 216 215 213 208 210 219 226 231 236 240 245 249 243 229 220 217 220 231 244 251 243 223 208 201 200 207 215 219 219 216 209 202 201 205 212 217 218 219
177 183 206 213 201 204 231 260 170 191 233 246 246 233 227 239 240 231 241 231 207 209 214 208 213 220 216 213 220 221 220 224 229 230 226 222 221 220 224 233 234 223 207 202 199 193 197 208 214 208 204 205 209 216 221 225 230 235 240 247 249 241 224 207 209 234 243 233 217 203 197 197 201 209 215 214 209 203 196 198 207 214 216 216 214 213
199 211 216 224 219 208 226 247 203 199 223 230 237 235 222 229 230 219 220 225 211 206 206 199 207 221 225 225 228 229 230 233 234 235 237 235 229 223 226 234 233 221 210 209 206 193 194 207 213 205 201 206 212 214 218 223 225 228 235 240 246 245 231 207 207 230 229 212 200 195 194 198 205 211 210 204 198 196 200 211 218 216 212 212 212 212
209 215 216 225 231 222 228 242 233 215 208 200 213 222 211 211 213 204 203 215 214 209 201 187 186 216 226 228 232 236 239 242 239 237 241 241 237 233 232 230 222 213 209 212 212 203 198 203 205 200 202 210 215 216 219 222 223 225 230 233 236 240 235 218 211 215 212 201 196 196 197 202 208 206 199 196 198 207 219 223 217 209 207 208 209 211
200 205 211 216 224 230 230 232 236 216 201 196 199 207 209 212 214 208 209 216 218 218 210 194 186 199 220 229 236 239 241 242 238 234 238 242 242 240 234 228 228 226 222 219 218 214 207 201 199 202 209 213 215 217 218 219 219 221 224 227 231 237 235 224 213 207 204 198 195 195 197 202 204 199 196 202 213 225 228 218 207 202 202 205 208 212
202 205 207 210 219 236 240 232 235 226 209 204 198 205 213 219 221 216 213 218 224 225 223 215 206 205 215 227 235 233 231 232 230 228 233 240 241 238 234 233 236 237 234 232 229 223 215 205 200 205 211 212 213 215 216 215 214 214 216 220 228 234 234 225 213 204 198 194 193 194 198 201 201 201 208 219 227 227 217 206 201 200 200 203 209 218
204 208 206 207 217 231 247 240 224 205 201 198 195 205 213 214 217 217 209 211 220 223 226 227 221 216 222 233 238 226 219 221 220 219 226 236 237 237 239 234 228 228 231 234 232 226 217 206 201 203 206 207 210 215 216 214 210 208 209 217 228 235 231 218 205 196 190 190 193 197 201 203 206 213 222 227 224 216 205 199 198 199 200 204 213 226
200 208 205 193 206 222 240 240 186 176 184 191 197 209 214 210 211 214 210 212 221 223 227 232 227 222 225 234 239 229 218 219 224 227 233 240 241 242 243 235 226 236 250 244 235 226 215 205 200 201 201 201 205 211 212 209 205 204 209 220 230 230 219 207 199 192 190 194 198 201 205 209 216 222 223 219 212 204 198 197 197 198 201 208 219 237
192 207 206 189 195 212 220 212 191 184 186 196 205 211 215 215 213 215 217 219 222 223 228 234 228 222 223 227 230 226 221 225 234 239 239 241 242 245 246 239 235 246 258 254 242 228 214 204 199 199 202 202 204 206 204 202 201 205 214 225 227 219 209 202 197 193 194 199 202 205 211 216 220 220 214 208 202 197 195 196 196 199 205 214 229 249
185 206 216 227 239 230 210 192 206 201 192 198 206 204 204 206 204 211 219 220 214 207 215 230 230 223 222 225 229 230 229 232 237 239 239 243 247 249 249 247 245 249 253 252 245 232 217 206 198 197 200 202 203 203 200 198 201 209 218 224 222 214 206 200 197 197 200 203 206 211 215 217 215 212 206 201 196 194 195 194 194 200 209 220 235 246
205 207 213 227 248 247 238 214 208 212 198 197 201 199 195 190 186 203 224 230 222 209 204 222 233 228 225 226 229 231 232 231 233 237 243 247 250 251 251 251 247 243 242 241 238 231 221 209 199 195 197 200 200 200 199 199 205 216 223 225 220 210 203 201 201 202 204 206 209 212 212 211 207 205 202 199 195 193 193 191 194 202 212 223 231 229
217 205 208 215 218 226 227 211 212 237 223 209 213 214 211 209 202 204 226 242 239 226 212 215 229 232 229 227 228 229 231 230 231 236 240 243 246 249 252 250 243 237 235 234 231 225 218 209 200 196 198 200 197 197 199 203 211 219 225 227 220 209 204 205 206 205 205 205 207 208 207 205 203 201 200 196 192 189 189 190 196 206 214 220 217 204
213 214 220 218 213 220 227 221 225 238 235 223 226 227 225 222 211 208 227 249 257 238 217 212 217 225 229 229 228 229 233 236 237 238 240 243 246 248 247 242 238 235 231 226 223 218 212 206 200 199 201 201 197 197 201 207 213 219 224 227 219 209 207 209 208 206 205 203 203 204 203 202 199 196 193 189 187 189 192 195 201 210 214 210 201 189
208 226 231 223 219 224 230 235 241 247 248 242 235 232 236 236 227 223 234 247 258 247 226 216 214 219 225 228 225 225 229 234 237 239 241 245 246 245 241 236 235 234 228 222 220 216 208 202 201 202 204 202 200 201 203 206 212 218 224 226 220 212 210 210 207 205 204 201 200 201 200 198 195 190 187 186 188 190 193 199 206 210 207 202 193 184
Height
3044 3045 3042 3042 3045 3051 3055 3059 3064 3068 3071 3073 3076 3078 3080 3081 3082 3084 3086 3088 3090 3091 3092 3095 3098 3098 3097 3100 3104 3107 3109 3111 3112 3113 3115 3117 3118 3119 3120 3121 3123 3124 3126 3127 3127 3129 3131 3134 3136 3137 3140 3144 3148 3150 3151 3153 3154 3156 3158 3158 3158 3159 3159 3159 3160 3159 3159 3160 3161 3162 3164 3165 3166 3167 3168 3168 3168 3169 3170 3172 3174 3175 3176 3178 3179 3179
3041 3038 3037 3041 3048 3053 3057 3060 3065 3067 3068 3071 3074 3076 3078 3079 3080 3082 3084 3085 3088 3089 3089 3093 3096 3096 3096 3097 3100 3103 3106 3108 3110 3112 3114 3115 3116 3117 3119 3120 3122 3123 3124 3125 3126 3127 3130 3132 3134 3136 3138 3142 3146 3148 3149 3151 3152 3154 3155 3155 3156 3157 3157 3157 3158 3158 3159 3160 3161 3161 3163 3164 3165 3166 3167 3167 3168 3169 3169 3171 3173 3174 3176 3177 3177 3177
3035 3032 3036 3044 3049 3054 3058 3061 3064 3065 3066 3067 3070 3073 3074 3076 3078 3080 3081 3081 3085 3087 3087 3090 3094 3095 3095 3096 3098 3101 3103 3106 3108 3111 3112 3113 3114 3115 3117 3119 3121 3122 3123 3124 3126 3127 3129 3131 3133 3135 3137 3140 3143 3145 3147 3149 3151 3152 3152 3153 3155 3156 3156 3156 3156 3157 3158 3159 3160 3161 3162 3163 3164 3165 3166 3167 3167 3168 3169 3170 3171 3172 3175 3176 3176 3176
3029 3030 3038 3045 3049 3053 3057 3059 3061 3063 3063 3063 3065 3068 3070 3072 3076 3077 3077 3078 3081 3084 3084 3088 3092 3093 3093 3094 3097 3099 3101 3103 3106 3108 3110 3112 3113 3114 3116 3117 3119 3120 3121 3123 3125 3127 3129 3131 3133 3134 3136 3139 3141 3143 3145 3147 3148 3150 3151 3152 3154 3155 3155 3155 3155 3155 3156 3158 3159 3160 3162 3162 3163 3164 3164 3166 3167 3168 3169 3170 3171 3173 3174 3175 3174 3175
3029 3032 3039 3045 3048 3051 3054 3056 3059 3060 3060 3060 3062 3064 3066 3069 3072 3074 3075 3076 3079 3081 3082 3085 3091 3092 3091 3092 3095 3098 3100 3101 3103 3105 3107 3109 3111 3113 3114 3115 3117 3119 3120 3122 3123 3125 3127 3129 3132 3133 3135 3137 3139 3141 3143 3145 3146 3148 3149 3151 3153 3153 3154 3154 3154 3154 3155 3157 3158 3160 3162 3162 3163 3163 3163 3164 3166 3167 3169 3170 3172 3173 3173 3173 3174 3174
3031 3035 3039 3042 3045 3048 3051 3053 3055 3057 3059 3058 3058 3061 3064 3066 3069 3073 3075 3076 3077 3079 3078 3080 3087 3091 3091 3091 3093 3094 3097 3100 3101 3103 3105 3107 3108 3110 3112 3113 3115 3117 3119 3121 3123 3124 3126 3128 3131 3132 3134 3136 3138 3140 3142 3143 3144 3146 3148 3150 3150 3151 3152 3152 3152 3153 3154 3156 3157 3159 3162 3163 3163 3163 3163 3164 3165 3167 3168 3169 3170 3171 3172 3172 3173 3173
3031 3034 3037 3039 3042 3046 3048 3050 3052 3055 3058 3056 3055 3059 3063 3064 3066 3071 3073 3073 3074 3076 3077 3077 3081 3088 3091 3091 3093 3094 3096 3097 3098 3100 3102 3104 3105 3107 3110 3112 3113 3115 3117 3119 3122 3124 3125 3127 3129 3131 3133 3135 3137 3139 3140 3141 3143 3145 3147 3148 3149 3150 3151 3151 3152 3152 3153 3155 3157 3159 3160 3162 3163 3163 3164 3164 3165 3166 3167 3168 3169 3170 3171 3172 3173 3173
3028 3032 3034 3037 3041 3043 3044 3045 3049 3053 3054 3053 3055 3059 3062 3062 3064 3067 3071 3072 3072 3074 3076 3075 3075 3081 3087 3089 3092 3094 3095 3095 3096 3098 3100 3101 3103 3105 3107 3109 3111 3113 3115 3117 3120 3122 3124 3126 3128 3130 3132 3134 3136 3138 3139 3140 3142 3143 3145 3146 3147 3148 3149 3150 3151 3152 3152 3154 3156 3158 3159 3160 3161 3162 3163 3163 3164 3165 3166 3168 3169 3170 3171 3171 3172 3172
3027 3029 3031 3034 3037 3038 3039 3042 3047 3052 3052 3053 3056 3059 3060 3062 3063 3065 3068 3070 3072 3072 3072 3072 3070 3075 3082 3085 3090 3093 3092 3093 3094 3095 3097 3099 3101 3103 3105 3107 3109 3112 3114 3115 3118 3121 3123 3125 3127 3129 3131 3133 3135 3137 3138 3139 3141 3142 3143 3145 3146 3147 3148 3150 3151 3151 3152 3154 3156 3157 3158 3159 3160 3161 3162 3162 3163 3165 3166 3167 3168 3169 3170 3171 3171 3172
3026 3027 3029 3032 3033 3035 3038 3043 3047 3050 3051 3054 3058 3059 3059 3061 3062 3063 3065 3067 3069 3068 3066 3067 3067 3072 3080 3083 3086 3089 3090 3090 3092 3093 3095 3097 3099 3101 3102 3105 3108 3110 3112 3114 3117 3119 3121 3124 3126 3129 3130 3132 3134 3135 3136 3138 3139 3140 3142 3143 3145 3146 3148 3149 3150 3151 3152 3153 3155 3156 3157 3158 3159 3160 3161 3162 3164 3165 3166 3167 3167 3168 3169 3170 3170 3170
3024 3026 3029 3030 3031 3034 3039 3043 3046 3048 3052 3055 3057 3058 3059 3060 3061 3062 3063 3065 3067 3064 3061 3064 3066 3069 3078 3082 3081 3082 3085 3086 3088 3090 3093 3095 3097 3098 3101 3104 3106 3108 3110 3112 3114 3117 3120 3123 3125 3127 3129 3131 3133 3134 3135 3137 3138 3139 3140 3142 3143 3145 3146 3147 3149 3150 3151 3153 3155 3156 3157 3158 3159 3160 3161 3162 3164 3165 3165 3166 3166 3167 3168 3169 3169 3169
3023 3025 3026 3027 3030 3035 3040 3043 3044 3047 3052 3054 3055 3057 3057 3057 3060 3061 3061 3063 3064 3063 3062 3064 3066 3067 3072 3077 3077 3078 3081 3082 3083 3086 3088 3091 3093 3096 3099 3103 3105 3107 3108 3110 3112 3114 3118 3121 3123 3125 3128 3130 3131 3132 3134 3136 3137 3138 3139 3140 3142 3143 3144 3146 3148 3149 3151 3153 3155 3156 3158 3159 3160 3160 3161 3163 3164 3164 3164 3165 3165 3166 3167 3167 3167 3167
3020 3022 3023 3026 3030 3033 3036 3040 3042 3045 3048 3050 3051 3054 3055 3055 3058 3059 3059 3060 3061 3062 3061 3062 3064 3065 3065 3068 3071 3075 3078 3080 3081 3083 3085 3087 3090 3094 3098 3101 3104 3105 3107 3109 3110 3113 3117 3119 3121 3124 3127 3129 3130 3132 3133 3134 3135 3137 3138 3139 3141 3142 3143 3145 3147 3149 3151 3153 3155 3156 3157 3158 3159 3160 3161 3162 3163 3163 3163 3163 3164 3165 3165 3166 3166 3166
3017 3020 3022 3025 3027 3030 3033 3035 3037 3039 3043 3045 3045 3048 3051 3052 3055 3057 3057 3059 3061 3061 3059 3060 3062 3063 3062 3063 3067 3070 3073 3076 3079 3081 3084 3086 3089 3092 3096 3099 3102 3104 3106 3108 3109 3113 3116 3118 3120 3123 3125 3127 3129 3130 3132 3133 3135 3136 3137 3138 3140 3141 3143 3144 3146 3148 3150 3152 3154 3156 3156 3157 3158 3160 3161 3161 3161 3161 3161 3162 3163 3164 3164 3164 3165 3165
3013 3015 3017 3020 3022 3026 3030 3032 3034 3037 3041 3043 3043 3046 3049 3049 3051 3054 3056 3058 3060 3059 3059 3060 3061 3060 3060 3061 3064 3068 3071 3074 3078 3080 3082 3085 3088 3092 3095 3097 3100 3103 3104 3106 3109 3112 3114 3117 3120 3122 3124 3126 3128 3129 3130 3132 3133 3135 3136 3138 3139 3141 3142 3144 3146 3148 3150 3152 3153 3154 3155 3156 3158 3159 3159 3160 3160 3160 3160 3161 3162 3162 3163 3163 3163 3164
3012 3012 3015 3019 3021 3024 3027 3031 3035 3038 3040 3042 3044 3046 3047 3047 3049 3052 3054 3056 3057 3058 3057 3058 3059 3059 3059 3059 3062 3067 3071 3074 3078 3080 3082 3084 3087 3091 3094 3096 3099 3101 3102 3104 3108 3111 3113 3116 3118 3120 3122 3125 3127 3128 3129 3131 3132 3134 3136 3137 3138 3140 3142 3144 3146 3148 3150 3151 3152 3153 3154 3156 3157 3158 3158 3159 3159 3160 3160 3160 3161 3161 3162 3162 3162 3162
3010 3012 3015 3019 3021 3023 3027 3031 3035 3036 3038 3040 3041 3041 3044 3048 3049 3051 3053 3055 3056 3058 3057 3056 3057 3058 3059 3061 3062 3065 3070 3074 3076 3079 3081 3084 3087 3090 3092 3095 3097 3098 3100 3103 3106 3109 3111 3114 3116 3118 3121 3123 3125 3127 3128 3130 3132 3133 3135 3136 3138 3140 3141 3144 3145 3147 3149 3150 3151 3153 3154 3155 3156 3157 3157 3158 3158 3159 3159 3159 3160 3160 3161 3161 3161 3161
3008 3011 3014 3017 3019 3022 3026 3030 3033 3035 3037 3038 3038 3040 3045 3049 3049 3049 3052 3054 3056 3059 3058 3055 3057 3058 3059 3062 3065 3065 3068 3072 3075 3077 3081 3085 3089 3091 3093 3094 3095 3097 3099 3102 3105 3108 3109 3111 3114 3116 3119 3122 3124 3126 3128 3130 3131 3132 3134 3136 3138 3140 3141 3143 3145 3147 3148 3150 3151 3152 3153 3154 3155 3155 3156 3157 3157 3157 3158 3158 3159 3159 3160 3160 3160 3160
3008 3010 3013 3016 3019 3021 3025 3027 3029 3031 3035 3036 3038 3042 3045 3045 3045 3047 3050 3052 3056 3060 3059 3056 3056 3057 3057 3059 3065 3067 3067 3069 3073 3076 3080 3085 3089 3091 3092 3093 3095 3097 3098 3101 3104 3106 3107 3110 3112 3115 3117 3120 3122 3125 3127 3128 3130 3132 3133 3135 3137 3139 3141 3143 3145 3146 3148 3149 3150 3151 3152 3153 3153 3154 3155 3155 3156 3156 3157 3157 3157 3158 3158 3158 3159 3159
3009 3009 3012 3016 3020 3023 3025 3025 3025 3028 3032 3036 3039 3042 3043 3043 3043 3045 3048 3050 3053 3057 3060 3058 3057 3056 3056 3056 3061 3065 3065 3067 3070 3073 3078 3083 3086 3088 3090 3092 3094 3096 3098 3100 3103 3104 3106 3108 3111 3113 3116 3119 3121 3123 3125 3127 3129 3131 3132 3134 3136 3138 3141 3142 3144 3145 3146 3148 3149 3150 3150 3151 3152 3153 3154 3154 3155 3155 3155 3156 3156 3156 3157 3157 3157 3157
3008 3008 3012 3016 3020 3023 3022 3021 3023 3027 3031 3033 3035 3038 3040 3041 3043 3045 3047 3049 3051 3054 3057 3059 3058 3056 3056 3057 3058 3060 3062 3064 3067 3071 3076 3081 3084 3085 3088 3092 3094 3095 3098 3100 3102 3103 3105 3107 3109 3111 3114 3117 3120 3122 3123 3125 3127 3129 3131 3133 3135 3137 3139 3141 3142 3144 3145 3146 3147 3148 3149 3150 3151 3152 3152 3153 3153 3153 3154 3154 3154 3155 3155 3155 3156 3156
3006 3008 3012 3016 3018 3019 3019 3021 3025 3028 3031 3032 3033 3035 3037 3039 3042 3045 3047 3048 3049 3051 3053 3056 3057 3056 3055 3057 3057 3057 3059 3061 3064 3068 3073 3078 3081 3084 3088 3091 3093 3095 3098 3100 3101 3102 3103 3105 3107 3110 3112 3116 3118 3120 3122 3124 3126 3128 3130 3132 3134 3136 3137 3139 3141 3142 3144 3145 3146 3147 3148 3149 3149 3150 3150 3151 3151 3152 3152 3152 3153 3153 3153 3154 3154 3154
3005 3007 3011 3015 3017 3019 3021 3024 3025 3027 3031 3033 3033 3035 3037 3039 3040 3042 3045 3047 3048 3050 3050 3052 3055 3055 3055 3057 3057 3056 3058 3060 3063 3066 3071 3076 3080 3083 3086 3089 3092 3094 3097 3099 3100 3101 3103 3105 3107 3109 3111 3114 3116 3118 3120 3123 3125 3127 3128 3130 3133 3134 3136 3138 3139 3141 3142 3143 3144 3145 3146 3147 3147 3148 3148 3149 3149 3150 3150 3151 3151 3151 3152 3152 3152 3152
3005 3007 3010 3014 3018 3020 3023 3025 3025 3026 3030 3032 3032 3034 3036 3038 3040 3042 3045 3047 3047 3048 3050 3051 3054 3054 3054 3056 3058 3056 3056 3059 3062 3066 3071 3076 3080 3083 3085 3087 3090 3092 3095 3097 3099 3100 3102 3104 3106 3107 3109 3112 3115 3117 3120 3122 3124 3125 3127 3130 3132 3134 3135 3136 3138 3139 3140 3141 3142 3143 3144 3145 3145 3146 3146 3147 3147 3148 3148 3149 3149 3150 3150 3150 3150 3150
3005 3006 3009 3012 3016 3019 3022 3023 3023 3023 3025 3028 3030 3032 3035 3038 3041 3043 3045 3047 3047 3047 3048 3050 3052 3053 3054 3056 3058 3059 3059 3059 3062 3067 3071 3075 3079 3082 3084 3086 3089 3091 3093 3095 3097 3099 3101 3103 3104 3106 3108 3110 3113 3116 3119 3121 3122 3124 3126 3129 3131 3132 3134 3135 3136 3137 3138 3139 3140 3141 3142 3143 3143 3144 3144 3145 3145 3146 3146 3147 3147 3147 3148 3148 3148 3148
3006 3007 3008 3010 3013 3015 3017 3017 3017 3019 3023 3026 3029 3031 3034 3037 3040 3042 3044 3046 3047 3047 3047 3048 3050 3053 3055 3056 3057 3060 3062 3062 3063 3067 3071 3075 3078 3081 3083 3085 3087 3089 3091 3093 3095 3097 3099 3101 3103 3104 3107 3109 3112 3115 3117 3119 3121 3123 3126 3128 3129 3131 3132 3133 3135 3135 3136 3137 3138 3139 3140 3140 3141 3141 3142 3142 3143 3143 3144 3145 3145 3145 3145 3146 3146 3146
3006 3007 3009 3010 3011 3014 3016 3017 3019 3022 3023 3026 3028 3031 3033 3036 3039 3041 3043 3045 3046 3046 3047 3048 3049 3052 3054 3055 3055 3058 3061 3062 3063 3067 3071 3074 3078 3081 3083 3084 3086 3088 3090 3091 3093 3095 3096 3098 3100 3103 3105 3108 3111 3114 3116 3118 3120 3122 3124 3126 3127 3129 3131 3132 3133 3134 3134 3135 3136 3137 3138 3138 3139 3139 3140 3140 3141 3141 3142 3142 3143 3143 3144 3144 3144 3144
3006 3007 3009 3011 3013 3015 3017 3020 3022 3023 3024 3027 3029 3031 3032 3034 3037 3041 3042 3043 3045 3046 3046 3047 3049 3052 3054 3055 3055 3055 3058 3061 3064 3067 3071 3074 3077 3080 3081 3083 3085 3086 3088 3090 3091 3093 3094 3096 3098 3101 3103 3106 3110 3113 3114 3116 3118 3121 3123 3124 3126 3128 3129 3130 3131 3132 3133 3133 3134 3135 3136 3136 3137 3137 3138 3138 3139 3140 3140 3141 3141 3141 3142 3142 3142 3142
3006 3008 3010 3012 3014 3016 3018 3020 3021 3024 3026 3028 3030 3031 3032 3033 3035 3039 3041 3043 3044 3045 3046 3047 3048 3051 3053 3055 3055 3055 3058 3061 3064 3067 3071 3073 3075 3077 3079 3081 3082 3084 3086 3087 3089 3091 3092 3094 3096 3099 3102 3105 3108 3110 3112 3114 3116 3119 3121 3122 3124 3126 3127 3128 3129 3130 3131 3132 3133 3133 3134 3134 3135 3135 3136 3136 3137 3138 3138 3139 3139 3139 3140 3140 3140 3140
3007 3009 3010 3012 3014 3015 3017 3019 3020 3023 3026 3028 3029 3031 3033 3033 3035 3037 3040 3042 3043 3044 3046 3047 3048 3050 3053 3055 3056 3057 3059 3061 3064 3066 3069 3071 3073 3075 3076 3078 3080 3082 3084 3086 3087 3089 3091 3093 3095 3098 3101 3103 3105 3108 3110 3112 3115 3118 3121 3122 3123 3124 3125 3127 3128 3128 3129 3130 3130 3131 3131 3132 3133 3133 3133 3134 3135 3136 3136 3137 3137 3138 3138 3138 3138 3138
3007 3009 3010 3012 3013 3013 3015 3018 3019 3021 3024 3027 3028 3030 3032 3034 3035 3036 3037 3040 3043 3044 3045 3046 3047 3050 3053 3055 3056 3058 3060 3061 3063 3065 3067 3069 3071 3073 3075 3076 3078 3080 3082 3084 3085 3087 3090 3092 3094 3097 3099 3100 3102 3106 3109 3112 3115 3118 3120 3120 3121 3122 3123 3124 3125 3126 3127 3128 3128 3129 3129 3130 3130 3131 3131 3132 3133 3133 3134 3135 3135 3136 3136 3136 3136 3136
3007 3009 3010 3012 3013 3013 3014 3016 3019 3021 3023 3026 3028 3030 3032 3033 3034 3034 3035 3038 3041 3044 3045 3044 3044 3047 3051 3054 3056 3058 3059 3061 3062 3064 3065 3067 3069 3070 3073 3075 3076 3078 3080 3081 3083 3085 3089 3091 3093 3094 3096 3097 3101 3106 3109 3110 3113 3115 3116 3117 3117 3119 3120 3122 3123 3124 3125 3126 3126 3127 3127 3128 3128 3129 3129 3130 3130 3131 3132 3133 3133 3134 3134 3134 3135 3135
3008 3009 3011 3013 3013 3012 3013 3015 3017 3019 3022 3025 3027 3029 3030 3032 3033 3034 3035 3037 3040 3043 3045 3044 3044 3045 3048 3052 3055 3057 3058 3059 3060 3062 3064 3065 3067 3069 3071 3073 3075 3077 3078 3079 3081 3084 3087 3089 3090 3091 3092 3096 3101 3105 3106 3107 3109 3112 3113 3114 3115 3116 3118 3119 3121 3122 3123 3123 3124 3125 3125 3126 3126 3127 3127 3128 3129 3129 3130 3131 3132 3132 3132 3133 3133 3133
3008 3009 3011 3013 3014 3013 3013 3015 3017 3019 3021 3023 3025 3027 3028 3030 3032 3034 3035 3037 3039 3042 3043 3043 3044 3045 3047 3049 3052 3054 3057 3058 3059 3061 3063 3065 3068 3069 3071 3073 3074 3075 3076 3078 3080 3083 3085 3086 3088 3088 3091 3095 3100 3102 3103 3104 3107 3109 3110 3111 3112 3114 3115 3117 3118 3120 3121 3121 3122 3123 3123 3124 3124 3125 3125 3126 3127 3128 3128 3129 3130 3131 3131 3132 3132 3132
3008 3010 3012 3013 3014 3013 3013 3016 3019 3020 3021 3022 3024 3025 3027 3028 3030 3032 3034 3036 3038 3041 3042 3042 3043 3044 3046 3049 3051 3053 3055 3057 3059 3061 3063 3065 3067 3068 3069 3071 3073 3074 3075 3077 3079 3080 3081 3083 3085 3086 3089 3093 3096 3098 3100 3102 3105 3107 3107 3108 3109 3111 3113 3114 3116 3117 3118 3119 3120 3121 3122 3122 3122 3123 3124 3125 3125 3126 3127 3128 3129 3130 3130 3131 3131 3132
3009 3011 3012 3013 3013 3014 3014 3017 3020 3021 3020 3021 3023 3024 3026 3028 3029 3031 3034 3036 3038 3040 3042 3042 3042 3044 3047 3049 3051 3053 3055 3057 3059 3060 3061 3063 3064 3065 3067 3069 3071 3072 3074 3075 3077 3077 3079 3081 3083 3084 3087 3090 3093 3096 3097 3099 3101 3104 3105 3104 3106 3108 3110 3112 3114 3115 3116 3117 3118 3119 3120 3120 3121 3122 3122 3123 3124 3125 3126 3127 3128 3129 3129 3130 3131 3131
3010 3012 3013 3014 3014 3015 3016 3017 3019 3021 3020 3021 3022 3024 3026 3028 3030 3032 3033 3034 3037 3039 3041 3042 3041 3043 3045 3047 3050 3052 3054 3056 3057 3058 3059 3061 3062 3063 3066 3068 3070 3071 3072 3073 3075 3076 3078 3081 3082 3084 3085 3088 3091 3093 3094 3095 3098 3100 3101 3102 3104 3106 3108 3109 3111 3113 3113 3115 3116 3117 3118 3118 3119 3120 3121 3122 3123 3124 3125 3126 3127 3128 3128 3129 3130 3130
3011 3013 3015 3016 3016 3017 3018 3019 3020 3021 3022 3022 3023 3024 3026 3027 3029 3031 3031 3032 3035 3038 3040 3041 3040 3040 3043 3045 3047 3050 3053 3054 3055 3056 3058 3059 3060 3062 3065 3067 3068 3069 3070 3071 3072 3074 3077 3079 3080 3082 3084 3086 3088 3090 3091 3093 3096 3098 3099 3101 3102 3103 3104 3105 3108 3110 3111 3113 3114 3115 3116 3117 3118 3119 3119 3120 3121 3122 3123 3124 3125 3126 3127 3128 3128 3129
3013 3014 3015 3016 3017 3018 3019 3020 3021 3021 3022 3023 3023 3025 3026 3026 3027 3030 3031 3032 3034 3036 3038 3040 3039 3039 3040 3042 3044 3047 3050 3051 3053 3055 3057 3058 3058 3061 3063 3065 3066 3067 3068 3070 3071 3072 3074 3076 3078 3080 3082 3084 3086 3087 3089 3091 3095 3097 3098 3099 3100 3101 3102 3102 3105 3108 3110 3111 3112 3113 3114 3115 3116 3117 3118 3119 3120 3121 3122 3123 3124 3125 3126 3126 3127 3128
3012 3014 3015 3016 3017 3018 3019 3020 3021 3021 3022 3023 3024 3025 3026 3026 3026 3029 3030 3030 3032 3034 3036 3038 3038 3037 3039 3041 3042 3044 3047 3049 3052 3055 3055 3055 3057 3059 3062 3063 3064 3065 3066 3067 3069 3070 3072 3075 3076 3077 3079 3081 3083 3085 3087 3090 3093 3094 3096 3097 3099 3101 3102 3102 3103 3106 3108 3109 3110 3111 3112 3113 3114 3115 3116 3117 3118 3119 3120 3121 3122 3123 3124 3125 3126 3127
3012 3013 3014 3015 3017 3018 3019 3020 3020 3021 3022 3023 3023 3024 3025 3026 3026 3027 3028 3029 3031 3032 3034 3037 3038 3038 3038 3038 3039 3041 3045 3048 3051 3053 3053 3053 3055 3058 3060 3061 3062 3063 3064 3065 3066 3068 3070 3072 3074 3076 3078 3080 3082 3084 3086 3089 3091 3093 3094 3096 3098 3100 3101 3101 3102 3104 3106 3107 3109 3110 3111 3112 3113 3114 3115 3116 3117 3118 3119 3120 3121 3122 3123 3124 3125 3126
3011 3012 3014 3015 3017 3018 3019 3020 3020 3021 3022 3022 3023 3024 3024 3025 3025 3025 3026 3028 3030 3031 3033 3035 3036 3037 3037 3037 3038 3041 3044 3045 3047 3049 3051 3051 3053 3055 3057 3059 3060 3061 3062 3063 3065 3066 3068 3069 3072 3074 3076 3078 3080 3082 3085 3087 3090 3092 3093 3095 3097 3099 3100 3100 3100 3102 3104 3105 3107 3108 3109 3110 3111 3113 3114 3115 3116 3117 3118 3119 3120 3121 3122 3123 3124 3125
3012 3013 3014 3015 3016 3018 3019 3020 3020 3020 3021 3022 3023 3023 3023 3024 3024 3024 3026 3027 3028 3029 3031 3032 3034 3035 3035 3035 3037 3039 3041 3042 3043 3046 3049 3051 3052 3053 3055 3057 3059 3060 3061 3062 3063 3064 3066 3067 3069 3072 3074 3076 3079 3082 3084 3086 3088 3090 3093 3094 3096 3097 3098 3098 3099 3100 3102 3104 3105 3107 3108 3109 3110 3111 3112 3113 3114 3115 3117 3118 3119 3120 3122 3123 3123 3124
3013 3013 3014 3015 3017 3018 3019 3019 3019 3019 3020 3021 3022 3022 3023 3023 3024 3024 3025 3026 3026 3028 3029 3030 3031 3032 3032 3033 3034 3036 3038 3040 3042 3044 3047 3049 3051 3053 3054 3055 3057 3058 3059 3060 3061 3062 3064 3065 3067 3069 3072 3075 3078 3081 3082 3084 3087 3089 3091 3093 3094 3095 3096 3096 3097 3099 3101 3102 3104 3105 3106 3107 3109 3110 3111 3112 3113 3114 3115 3117 3118 3120 3121 3122 3122 3123
3013 3013 3014 3016 3016 3017 3018 3018 3019 3019 3019 3020 3021 3022 3022 3023 3023 3024 3025 3026 3027 3028 3028 3028 3029 3030 3031 3031 3032 3034 3037 3039 3041 3044 3046 3048 3050 3051 3052 3054 3056 3057 3058 3059 3059 3060 3061 3063 3065 3067 3070 3073 3076 3079 3081 3083 3085 3087 3089 3091 3092 3093 3094 3095 3096 3097 3099 3100 3102 3103 3105 3106 3107 3108 3109 3111 3112 3113 3115 3116 3118 3119 3120 3121 3121 3121
3012 3013 3015 3016 3016 3016 3017 3018 3019 3018 3019 3020 3021 3021 3022 3023 3023 3024 3025 3026 3027 3028 3028 3028 3028 3028 3029 3030 3031 3033 3036 3039 3041 3043 3045 3047 3048 3049 3050 3052 3054 3055 3056 3057 3058 3058 3059 3061 3063 3066 3069 3072 3074 3077 3079 3082 3084 3085 3087 3089 3090 3091 3092 3093 3094 3096 3097 3099 3100 3102 3103 3104 3105 3107 3108 3109 3111 3112 3114 3115 3117 3118 3119 3120 3120 3120
3012 3013 3014 3015 3016 3017 3017 3017 3017 3017 3018 3020 3021 3021 3021 3022 3022 3023 3024 3025 3026 3028 3028 3027 3027 3027 3028 3029 3031 3032 3034 3037 3039 3041 3043 3045 3046 3048 3049 3050 3052 3053 3054 3055 3056 3056 3057 3058 3061 3063 3066 3070 3072 3075 3077 3080 3082 3084 3086 3087 3088 3089 3090 3091 3092 3094 3095 3097 3099 3100 3101 3103 3104 3105 3107 3108 3110 3111 3113 3115 3116 3117 3118 3118 3119 3119
3010 3011 3013 3014 3015 3016 3016 3016 3017 3018 3019 3019 3020 3020 3021 3021 3022 3022 3023 3024 3025 3027 3027 3027 3026 3027 3028 3029 3031 3032 3034 3036 3038 3039 3041 3043 3045 3046 3048 3049 3050 3051 3052 3053 3054 3054 3055 3057 3058 3061 3064 3068 3071 3073 3076 3078 3080 3082 3083 3084 3085 3087 3088 3089 3090 3092 3094 3095 3097 3098 3100 3101 3102 3104 3105 3107 3109 3111 3112 3114 3115 3116 3116 3117 3117 3117
3009 3010 3011 3013 3014 3014 3014 3015 3017 3019 3019 3019 3019 3020 3021 3021 3021 3021 3022 3023 3024 3025 3026 3026 3026 3026 3027 3028 3030 3031 3033 3035 3036 3037 3039 3041 3043 3044 3046 3047 3048 3049 3050 3051 3052 3053 3054 3055 3057 3060 3064 3067 3069 3072 3074 3077 3078 3080 3081 3082 3083 3085 3086 3087 3088 3090 3092 3094 3095 3097 3098 3099 3101 3103 3104 3106 3108 3110 3111 3112 3113 3114 3115 3115 3116 3116
3009 3010 3011 3012 3013 3013 3013 3015 3017 3018 3019 3019 3019 3019 3020 3020 3020 3020 3021 3022 3022 3023 3024 3024 3024 3025 3026 3027 3029 3031 3033 3034 3035 3036 3037 3039 3041 3042 3043 3044 3045 3046 3047 3048 3049 3050 3052 3054 3057 3060 3063 3065 3068 3071 3073 3075 3076 3077 3079 3080 3081 3082 3084 3085 3087 3089 3090 3092 3093 3095 3096 3098 3100 3102 3104 3106 3108 3109 3110 3111 3112 3113 3113 3114 3114 3115
3008 3009 3010 3011 3012 3012 3013 3014 3016 3017 3018 3017 3017 3018 3019 3019 3020 3020 3020 3021 3021 3022 3022 3023 3023 3024 3024 3025 3027 3029 3031 3032 3032 3033 3034 3036 3038 3039 3040 3041 3042 3044 3045 3046 3047 3048 3049 3052 3055 3058 3061 3063 3066 3068 3070 3072 3074 3075 3077 3078 3079 3080 3082 3084 3086 3087 3089 3090 3092 3093 3095 3097 3099 3101 3103 3105 3106 3107 3109 3110 3111 3111 3112 3113 3113 3114